Trenton, NJ

3:13 AM EDT on September 22, 2017 (GMT -0400)
Trenton Mercer

Weather History for KTTN - August, 2013

Change the Weather History Date:

Monday, August 5, 2013

  Actual Average Record
Temperature  
Mean Temperature 66 °F 75 °F  
Max Temperature 77 °F 85 °F 98 °F (1955)
Min Temperature 55 °F 66 °F 51 °F (1929)
Degree Days  
Heating Degree Days 0 0  
Month to date heating degree days 0 0  
Since 1 June heating degree days 4 24  
Since 1 July heating degree days 0 0  
Cooling Degree Days 1 10  
Month to date cooling degree days 27 51  
Year to date cooling degree days 749 628  
Since 1 June cooling degree days 659 571  
Growing Degree Days 16 (Base 50)    
Moisture  
Dew Point 52 °F    
Average Humidity 59    
Maximum Humidity 80    
Minimum Humidity 38    
Precipitation  
Precipitation 0.00 in 0.15 in 3.10 in (1904)
Month to date precipitation 1.04 0.74  
Year to date precipitation 29.46 27.62  
Sea Level Pressure  
Sea Level Pressure 30.02 in    
Wind  
Wind Speed 5 mph (NW)    
Max Wind Speed 15 mph    
Max Gust Speed 24 mph    
Visibility 10 miles    
Events      
T = Trace of Precipitation, MM = Missing Value Source: NWS Daily Summary

Daily Weather History Graph

Daily Weather History Graph

Search for Another Location

Airport or City:

Trip Planner

Search our weather history database for the weather conditions in past years. The results will help you decide how hot, cold, wet, or windy it might be!

Date:

Astronomy

Aug. 05, 2013 Rise Set
Actual Time 6:00 AM EDT 8:08 PM EDT
Civil Twilight 5:30 AM EDT 8:38 PM EDT
Nautical Twilight 4:53 AM EDT 9:15 PM EDT
Astronomical Twilight 4:13 AM EDT 9:55 PM EDT
Moon 4:53 AM EDT (8/5) 7:07 PM EDT (8/5)
Length of Visible Light 15h 07m
Length of Day
14h 07m
Waning Crescent, 1% of the Moon is Illuminated
Aug 5
Waning Crescent
Aug 6
New
Aug 14
First Quarter
Aug 20
Full
Aug 28
Last Quarter

Hourly Weather History & Observations

Time (EDT) Temp. Dew Point Humidity Pressure Visibility Wind Dir Wind Speed Gust Speed Precip Events Conditions
12:53 AM 63.0 °F 52.0 °F 67% 29.99 in 10.0 mi WNW 3.5 mph - N/A   Clear
1:53 AM 59.0 °F 53.1 °F 81% 29.99 in 10.0 mi SW 5.8 mph - N/A   Clear
2:53 AM 59.0 °F 53.1 °F 81% 30.00 in 10.0 mi WSW 3.5 mph - N/A   Clear
3:53 AM 59.0 °F 53.1 °F 81% 30.00 in 10.0 mi Calm Calm - N/A   Clear
4:53 AM 57.0 °F 52.0 °F 83% 30.01 in 10.0 mi WNW 4.6 mph - N/A   Clear
5:53 AM 57.0 °F 52.0 °F 83% 30.02 in 10.0 mi NW 9.2 mph - N/A   Clear
6:53 AM 57.9 °F 52.0 °F 81% 30.04 in 10.0 mi NNW 4.6 mph - N/A   Clear
7:53 AM 62.1 °F 53.1 °F 72% 30.05 in 10.0 mi NNW 6.9 mph - N/A   Clear
8:53 AM 66.0 °F 53.1 °F 63% 30.06 in 10.0 mi North 8.1 mph - N/A   Clear
9:53 AM 69.1 °F 52.0 °F 54% 30.06 in 10.0 mi North 9.2 mph - N/A   Clear
10:53 AM 71.1 °F 48.9 °F 45% 30.06 in 10.0 mi North 6.9 mph - N/A   Clear
11:53 AM 72.0 °F 48.0 °F 43% 30.06 in 10.0 mi North 5.8 mph - N/A   Clear
12:53 PM 73.0 °F 46.9 °F 39% 30.04 in 10.0 mi North 8.1 mph - N/A   Clear
1:53 PM 73.9 °F 48.9 °F 41% 30.02 in 10.0 mi NNW 10.4 mph 24.2 mph N/A   Clear
2:53 PM 75.9 °F 48.9 °F 38% 30.01 in 10.0 mi NW 6.9 mph 18.4 mph N/A   Clear
3:53 PM 75.9 °F 50.0 °F 40% 30.01 in 10.0 mi NNW 8.1 mph 20.7 mph N/A   Clear
4:53 PM 75.0 °F 48.9 °F 40% 29.99 in 10.0 mi NW 4.6 mph - N/A   Clear
5:53 PM 73.9 °F 52.0 °F 46% 30.00 in 10.0 mi WSW 3.5 mph - N/A   Clear
6:53 PM 73.0 °F 52.0 °F 48% 30.01 in 10.0 mi Calm Calm - N/A   Clear
7:53 PM 72.0 °F 52.0 °F 49% 30.02 in 10.0 mi Calm Calm - N/A   Clear
8:53 PM 71.1 °F 53.1 °F 53% 30.03 in 10.0 mi Variable 4.6 mph - N/A   Clear
9:53 PM 69.1 °F 54.0 °F 58% 30.03 in 10.0 mi West 4.6 mph - N/A   Clear
10:53 PM 66.9 °F 55.0 °F 66% 30.03 in 10.0 mi NW 5.8 mph - N/A   Clear
11:53 PM 64.9 °F 57.0 °F 75% 30.02 in 10.0 mi Calm Calm - N/A   Clear